TimeCDT,TemperatureF,Dew PointF,Humidity,Sea Level PressureIn,VisibilityMPH,Wind Direction,Wind SpeedMPH,Gust SpeedMPH,PrecipitationIn,Events,Conditions,WindDirDegrees,DateUTC
12:53 AM,46.0,41.0,83,29.81,10.0,Calm,Calm,-,N/A,,Clear,0,2012-10-02 05:53:00
1:53 AM,48.0,43.0,83,29.81,10.0,Calm,Calm,-,N/A,,Clear,0,2012-10-02 06:53:00
2:53 AM,48.2,42.8,82,29.81,10.0,NNW,4.6,-,N/A,,Clear,330,2012-10-02 07:53:00
3:53 AM,48.0,42.1,80,29.81,10.0,NW,4.6,-,N/A,,Clear,310,2012-10-02 08:53:00
4:53 AM,48.0,43.0,83,29.82,10.0,NW,3.5,-,N/A,,Clear,320,2012-10-02 09:53:00
5:53 AM,46.9,43.0,86,29.83,10.0,NW,3.5,-,N/A,,Clear,310,2012-10-02 10:53:00
6:53 AM,46.9,43.0,86,29.85,10.0,Calm,Calm,-,N/A,,Clear,0,2012-10-02 11:53:00
7:53 AM,50.0,44.1,80,29.86,10.0,NNW,3.5,-,N/A,,Clear,330,2012-10-02 12:53:00
8:53 AM,55.0,46.9,74,29.86,10.0,North,4.6,-,N/A,,Clear,350,2012-10-02 13:53:00
9:53 AM,59.0,45.0,60,29.88,10.0,NNW,6.9,-,N/A,,Clear,330,2012-10-02 14:53:00
10:53 AM,62.1,46.0,56,29.88,10.0,North,4.6,-,N/A,,Clear,350,2012-10-02 15:53:00
11:53 AM,64.9,46.0,50,29.88,10.0,NNW,8.1,-,N/A,,Clear,340,2012-10-02 16:53:00
12:53 PM,68.0,46.0,45,29.86,10.0,NNE,8.1,-,N/A,,Clear,20,2012-10-02 17:53:00
1:53 PM,69.1,44.1,40,29.84,10.0,North,8.1,-,N/A,,Clear,360,2012-10-02 18:53:00
2:53 PM,70.0,43.0,38,29.83,10.0,NNW,6.9,-,N/A,,Clear,330,2012-10-02 19:53:00
3:53 PM,72.0,46.0,40,29.83,10.0,NNE,4.6,-,N/A,,Clear,20,2012-10-02 20:53:00
4:53 PM,72.0,43.0,35,29.83,10.0,North,6.9,-,N/A,,Clear,350,2012-10-02 21:53:00
5:53 PM,71.1,42.1,35,29.84,10.0,NW,4.6,-,N/A,,Clear,320,2012-10-02 22:53:00
6:53 PM,68.0,42.1,39,29.85,10.0,Calm,Calm,-,N/A,,Clear,0,2012-10-02 23:53:00
7:53 PM,62.1,48.9,62,29.87,10.0,Calm,Calm,-,N/A,,Clear,0,2012-10-03 00:53:00
8:53 PM,64.4,42.8,45,29.88,10.0,Calm,Calm,-,N/A,,Clear,0,2012-10-03 01:53:00
9:53 PM,60.1,48.0,64,29.88,10.0,Calm,Calm,-,N/A,,Clear,0,2012-10-03 02:53:00
10:53 PM,57.9,48.0,70,29.89,10.0,Calm,Calm,-,N/A,,Clear,0,2012-10-03 03:53:00
11:53 PM,57.0,48.0,72,29.88,10.0,SSW,4.6,-,N/A,,Clear,200,2012-10-03 04:53:00